Notices

What's New in latest Release from April 7th, 2021:

- Updated Glossary, including Speed of Maximum Gust, and Total Hourly Precipitation

- Updated national and regional climate services offices contacts and prices information

- Addition of station inventory lists for 1981-2010, 1971-2000, and 1961-1990 Normals.

If you haven't already, please take our survey and provide feedback about our website: https://eccc.sondage-survey.ca/f/LanguageSelection.aspx?s=442ca660-fcf1-47c0-95a9-59707d6fd709

Hourly Data Report for March 08, 2021

MIRAMICHI RCS
NEW BRUNSWICK
Current Station Operator: ECCC - MSC

47°00'34.000" N
65°27'54.000" W
33.00 m
8100989
71744
ACQ

Download Data

Hourly Data (March 2021)
Hourly Data Report for March 8, 2021
TIME
LST
Temp Definition
°C
Dew Point Definition
°C
Rel Hum Definition
%
Precip. Amount Definition
mm

Wind Dir Definition
10's deg

Wind Spd Definition
km/h
Visibility Definition
km
Stn Press Definition
kPa
Hmdx Definition


Wind Chill Definition


Weather Definition


00:00 -9.5 -15.3 63 LegendMM 28 8   101.79   -14 LegendNANA
01:00 -11.5 -15.9 70 LegendMM 27 7   101.82   -16 LegendNANA
02:00 -14.2 -17.3 78 LegendMM 26 4   101.86   -17 LegendNANA
03:00 -15.4 -18.5 77 LegendMM 24 5   101.82   -19 LegendNANA
04:00 -13.6 -16.5 79 LegendMM 24 7   101.86   -18 LegendNANA
05:00 -10.1 -14.3 71 LegendMM 31 8   101.90   -15 LegendNANA
06:00 -10.1 -14.2 72 LegendMM 31 7   101.96   -14 LegendNANA
07:00 -11.5 -14.5 79 LegendMM 30 7   102.00   -16 LegendNANA
08:00 -9.9 -14.2 71 LegendMM 29 8   102.04   -14 LegendNANA
09:00 -6.6 -12.9 61 LegendMM 31 4   102.09   -9 LegendNANA
10:00 -4.9 -12.2 56 LegendMM 32 7   102.09   -8 LegendNANA
11:00 -2.7 -11.5 51 LegendMM 35 5   102.06   -5 LegendNANA
12:00 -1.4 -8.9 57 LegendMM 15 6   102.03   -4 LegendNANA
13:00 -0.9 -10.9 47 LegendMM 18 6   101.97   -3 LegendNANA
14:00 0.6 -9.0 48 LegendMM 10 3   101.91     LegendNANA
15:00 0.7 -10.3 43 LegendMM 15 5   101.90     LegendNANA
16:00 0.7 -9.4 47 LegendMM 11 4   101.86     LegendNANA
17:00 0.2 -10.7 44 LegendMM 9 5   101.84     LegendNANA
18:00 -1.9 -9.8 55 LegendMM 3 6   101.84   -4 LegendNANA
19:00 -5.9 -10.9 68 LegendMM 8 9   101.89   -10 LegendNANA
20:00 -6.7 -10.2 76 LegendMM 8 6   101.90   -10 LegendNANA
21:00 -10.1 -11.4 90 LegendMM 6 4   101.91   -12 LegendNANA
22:00 -11.2 -12.9 87 LegendMM   0   101.91     LegendNANA
23:00 -11.5 -13.2 88 LegendMM 27 1   101.89   -12 LegendNANA

Notes on Data Quality.

Legend

  • E = Estimated
  • M = Missing
  • NA = Not Available*
  • [empty] = Indicates an unobserved value
Date modified: